This is the latest recevied weather packets stored in our database for station/object K6HN. If no packets are shown the sender has not sent any weather packets the latest 10 day(s).
| Time | Temp. | Humidity | Pressure | Rain* | Wind** | Luminosity | Snow |
|---|---|---|---|---|---|---|---|
| 1777853579 | 16.11° C | 48% | 998.3 hPa | 0 mm | - | - | - |
| 1777852679 | 16.67° C | 48% | 998.3 hPa | 0 mm | - | - | - |
| 1777851779 | 16.67° C | 48% | 998 hPa | 0 mm | - | - | - |
| 1777850879 | 16.67° C | 48% | 998.3 hPa | 0 mm | - | - | - |
| 1777849979 | 16.11° C | 49% | 998.3 hPa | 0 mm | - | - | - |
| 1777849079 | 16.11° C | 50% | 998.6 hPa | 0 mm | - | - | - |
| 1777848179 | 16.11° C | 50% | 999 hPa | 0 mm | - | - | - |
| 1777847279 | 16.11° C | 49% | 998.6 hPa | 0 mm | - | - | - |
| 1777846379 | 16.11° C | 48% | 998.6 hPa | 0 mm | - | - | - |
| 1777845479 | 16.11° C | 49% | 998.6 hPa | 0 mm | - | - | - |
| 1777844579 | 15.56° C | 49% | 998.6 hPa | 0 mm | - | - | - |
| 1777843679 | 16.11° C | 49% | 999 hPa | 0 mm | - | - | - |
| 1777842779 | 16.11° C | 49% | 998.6 hPa | 0 mm | - | - | - |
| 1777841879 | 15.56° C | 52% | 998.6 hPa | 0 mm | - | - | - |
| 1777840979 | 15.56° C | 52% | 998.6 hPa | 0 mm | - | - | - |
| 1777840079 | 15.56° C | 52% | 998.6 hPa | 0 mm | - | - | - |
| 1777839179 | 16.11° C | 51% | 999 hPa | 0 mm | - | - | - |
| 1777838279 | 15° C | 51% | 999 hPa | 0 mm | - | - | - |
| 1777837379 | 14.44° C | 51% | 998.6 hPa | 0.25 mm | - | - | - |
| 1777836479 | 13.89° C | 52% | 999 hPa | 0.25 mm | - | - | - |
| 1777835579 | 13.33° C | 53% | 999 hPa | 0.25 mm | - | - | - |
| 1777834679 | 13.33° C | 53% | 999 hPa | 0.25 mm | - | - | - |
| 1777833779 | 13.89° C | 53% | 999 hPa | 0 mm | - | - | - |
| 1777832879 | 13.89° C | 51% | 998.6 hPa | 0 mm | - | - | - |
| 1777831979 | 13.33° C | 51% | 999 hPa | 0 mm | - | - | - |
* Rain latest hour (hover to see other rain measurements)
** Current wind speed in m/s (hover to see current wind gust speed)